Regional Weather Roundup
Issued by NWS Upton, NY

Current Version | Previous Version | Graphics & Text | Print | Product List | Glossary Off
Versions: 1 2 3 4 5 6 7 8 9 10 11 12 13 14 15 16 17 18 19 20 21 22 23 24 25 26 27 28 29 30 31 32 33 34 35 36 37 38 39 40 41 42 43 44 45 46 47 48 49 50

000
ASUS41 KOKX 152205
RWROKX

REGIONAL WEATHER ROUNDUP
NATIONAL WEATHER SERVICE NEW YORK NY
600 PM EDT MON SEP 15 2014

NOTE: "FAIR" INDICATES FEW OR NO CLOUDS BELOW 12,000 FEET WITH NO
SIGNIFICANT WEATHER AND/OR OBSTRUCTIONS TO VISIBILITY.

NYZ071-072-176-178-NJZ106-104-152300-
NEW YORK CITY METRO AREA


CITY           SKY/WX    TMP DP  RH WIND       PRES   REMARKS
CENTRAL PARK   SUNNY     69  43  38 CALM      30.14F
LAGUARDIA APRT PTSUNNY   71  42  35 W8        30.10F
KENNEDY INTL   PTSUNNY   68  45  43 SE9       30.13F
NEWARK/LIBERTY PTSUNNY   70  47  43 SE10      30.11F
BRNX BOT. GARD   N/A     70  43  37 S3        30.11F
TETERBORO      SUNNY     71  44  37 SW6       30.10F
$$

NYZ177-179-078>081-152300-
LONG ISLAND NEW YORK

CITY           SKY/WX    TMP DP  RH WIND       PRES   REMARKS
FARMINGDALE    SUNNY     66  47  50 S10       30.12F
ISLIP          PTSUNNY   66  46  48 S9        30.11F
SHIRLEY        SUNNY     68  44  42 VRB5      30.13S
WESTHAMPTON    SUNNY     65  46  50 S5        30.14F
MONTAUK POINT    N/A     64  48  56 S5        30.15S
$$

NYZ052-065-067-152300-
HUDSON VALLEY

CITY           SKY/WX    TMP DP  RH WIND       PRES   REMARKS
WHITE PLAINS   SUNNY     67  43  41 CALM      30.11F
NEWBURGH       MOSUNNY   68  46  45 VRB5      30.12F
MONTGOMERY     SUNNY     65  45  48 SW6       30.10F
POUGHKEEPSIE   SUNNY     68  44  42 SE3       30.10F
ALBANY         PTSUNNY   64  42  44 SE5       30.12S
$$

NJZ001-105-106-008-010-013-015-019>022-104-152300-
NEW JERSEY

CITY           SKY/WX    TMP DP  RH WIND       PRES   REMARKS
NEWARK/LIBERTY PTSUNNY   70  47  43 SE10      30.11F
TETERBORO      SUNNY     71  44  37 SW6       30.10F
CALDWELL       SUNNY     69  44  40 W3        30.11F
MORRISTOWN     PTSUNNY   70  45  40 W6        30.11F
SOMERVILLE     MOSUNNY   70  44  39 VRB3      30.10F
LINDEN         FAIR      74  49  40 S10       30.13S
SUSSEX         SUNNY     69  47  45 S5        30.11F
ANDOVER          N/A     66  47  50 SW3       30.12F
TRENTON        SUNNY     70  43  37 W3        30.11F
MILLVILLE      SUNNY     70  50  49 NW5       30.13F
ATLANTIC CITY  PTSUNNY   66  55  67 SE6       30.14F
WRIGHTSTOWN    MOSUNNY   69  49  48 S5        30.11S
TOMS RIVER     MOSUNNY   66  52  59 SE5       30.13F
BELMAR         SUNNY     64  48  55 SE6       30.13F
$$

PAZ047>061-062-071-152300-
EASTERN PENNSYLVANIA

CITY           SKY/WX    TMP DP  RH WIND       PRES   REMARKS
PHILADELPHIA   MOSUNNY   71  47  42 SW8       30.13S
ALLENTOWN      MOSUNNY   68  46  45 W7        30.12F
SCRANTON       SUNNY     66  42  41 S6        30.10F
$$

CTZ002-004>006-009-010-012-RIZ004-006-007-MAZ004-011-015-152300-
SOUTHERN NEW ENGLAND
 IN CT

CITY           SKY/WX    TMP DP  RH WIND       PRES   REMARKS
BRADLEY INTL   MOSUNNY   67  40  37 W7        30.11S
HARTFORD       SUNNY     67  40  37 VRB6      30.11S
DANBURY        SUNNY     65  42  43 CALM      30.12F
WTRBRY/OXFORD  MOSUNNY   64  41  42 NW3       30.14
BRIDGEPORT     SUNNY     68  45  43 S6        30.11F
MERIDEN        SUNNY     67  40  37 NW7       30.12S
NEW HAVEN      MOSUNNY   68  46  45 S6        30.12F
CHESTER        FAIR      64  48  55 S5        30.12F
GROTON         CLEAR     64  47  53 SW7       30.12S
WILLIMANTIC    SUNNY     66  44  45 N5        30.12F

 IN RI

CITY           SKY/WX    TMP DP  RH WIND       PRES   REMARKS
PROVIDENCE     PTCLDY    65  49  56 S7        30.14R
BLOCK ISLAND   CLEAR     64  46  52 SW8       30.14S
WESTERLY       CLEAR     66  45  46 SW9       30.14R

 IN MA

CITY           SKY/WX    TMP DP  RH WIND       PRES   REMARKS
BOSTON         PTCLDY    60  46  59 E8        30.14R
WORCESTER      CLEAR     59  40  49 W3        30.13F
WESTFIELD      SUNNY     65  43  44 SE3       30.11F
PROVINCETOWN   PTCLDY    61  45  55 NE3       30.15S
NANTUCKET      MOCLDY    63  49  60 SW6       30.13S
$$

ANZ330-335-338-340-345-350-353-355-152300-
COASTAL MARINE OBSERVATIONS


STATION/POSITION TIME  SKY/WX   TEMP    WIND        PRES    VSBY  WAVE
                                AIR SEA DIR/SP/G                  HT/PER
                 (UTC)          (F)     (DEG/KT/KT) (MB)    (MI)  (FT/S)
NY HARB ENTRANCE NOT AVBL
4S FIRE IS       NOT AVBL
23SW MTP         2200                                 N/A           2/ 6
HUDSON CANYON    2200            65 75   20/ 12/ 14 1020.1          2/ 7
EXECUTION ROCKS  2200            71 72  170/  8/ 12   N/A
WESTERN LI SOUND 2200            69     190/  6/  6   N/A           1
CENTRAL LI SOUND 2100            66 72  240/  8/ 12   N/A           1
EASTERN LI SOUND 2100            65 68  250/  8/ 10   N/A
ROBBINS REEF     2200            67     170/ 12/ 14 1018.5
$$


>>>>>>>>>>>>>>>>>>>>>>>>>>>> KEY <<<<<<<<<<<<<<<<<<<<<<<<<<<
>                                                          <
>     SKY/WX - SKY CONDITION/PRESENT WEATHER               <
>     TMP    - TEMPERATURE IN FAHRENHEIT                   <
>     DP     - DEWPOINT IN FAHRENHEIT                      <
>     RH     - RELATIVE HUMIDITY IN PERCENT                <
>     WIND   - DIRECTION AND SPEED IN MPH                  <
>     PRES   - MEAN SEA LEVEL PRESSURE IN INCHES OF HG     <
>     WCI    - WIND CHILL INDEX                            <
>     VSB    - VISIBILITY IN MILES                         <
>     HX     - HEAT INDEX                                  <
>     TC     - TEMPERATURE IN CELSIUS                      <
>     VRB    - VARIABLE WIND DIRECTION                     <
>                                                          <
>>>>>>>>>>>>>>>>>>>>>>>>>>>> KEY <<<<<<<<<<<<<<<<<<<<<<<<<<<





USA.gov is the U.S. government's official web portal to all federal, state and local government web resources and services.